TimeCDT,TemperatureF,Dew PointF,Humidity,Sea Level PressureIn,VisibilityMPH,Wind Direction,Wind SpeedMPH,Gust SpeedMPH,PrecipitationIn,Events,Conditions,WindDirDegrees,DateUTC
12:54 AM,30.9,18.0,59,30.33,10.0,North,6.9,-,N/A,,Clear,10,2013-04-03 05:54:00
1:54 AM,30.9,18.0,59,30.34,10.0,NNE,4.6,-,N/A,,Clear,20,2013-04-03 06:54:00
2:54 AM,30.0,18.0,61,30.33,10.0,North,3.5,-,N/A,,Clear,10,2013-04-03 07:54:00
4:54 AM,27.0,18.0,69,30.35,10.0,North,6.9,-,N/A,,Clear,10,2013-04-03 09:54:00
5:54 AM,26.1,18.0,71,30.36,10.0,NNE,4.6,-,N/A,,Clear,20,2013-04-03 10:54:00
6:54 AM,25.0,18.0,75,30.39,10.0,NNE,3.5,-,N/A,,Clear,30,2013-04-03 11:54:00
7:54 AM,30.9,21.0,67,30.41,10.0,NE,8.1,-,N/A,,Clear,40,2013-04-03 12:54:00
8:54 AM,36.0,21.0,55,30.43,10.0,NE,6.9,-,N/A,,Clear,40,2013-04-03 13:54:00
9:54 AM,42.1,21.0,43,30.43,10.0,ENE,9.2,-,N/A,,Clear,60,2013-04-03 14:54:00
10:54 AM,45.0,18.0,34,30.43,10.0,East,10.4,-,N/A,,Clear,90,2013-04-03 15:54:00
11:54 AM,46.0,15.1,29,30.43,10.0,East,12.7,17.3,N/A,,Clear,100,2013-04-03 16:54:00
12:54 PM,46.9,15.1,28,30.40,10.0,NE,8.1,-,N/A,,Clear,50,2013-04-03 17:54:00
1:54 PM,48.0,12.9,24,30.37,10.0,East,10.4,19.6,N/A,,Clear,100,2013-04-03 18:54:00
2:54 PM,50.0,15.1,25,30.36,10.0,East,13.8,18.4,N/A,,Clear,90,2013-04-03 19:54:00
3:54 PM,50.0,14.0,24,30.35,10.0,ESE,10.4,16.1,N/A,,Clear,110,2013-04-03 20:54:00
4:54 PM,50.0,15.1,25,30.34,10.0,East,15.0,-,N/A,,Clear,90,2013-04-03 21:54:00
5:54 PM,48.9,14.0,25,30.33,10.0,East,11.5,-,N/A,,Clear,100,2013-04-03 22:54:00
6:54 PM,46.0,18.0,33,30.33,10.0,East,9.2,-,N/A,,Clear,100,2013-04-03 23:54:00
7:54 PM,39.0,19.9,46,30.32,10.0,East,6.9,-,N/A,,Clear,80,2013-04-04 00:54:00
8:54 PM,36.0,21.0,55,30.33,10.0,East,6.9,-,N/A,,Clear,80,2013-04-04 01:54:00
9:54 PM,36.0,21.9,57,30.33,10.0,ENE,3.5,-,N/A,,Clear,70,2013-04-04 02:54:00
10:54 PM,35.1,21.9,59,30.32,10.0,East,5.8,-,N/A,,Clear,90,2013-04-04 03:54:00
11:54 PM,35.1,21.9,59,30.31,10.0,East,4.6,-,N/A,,Clear,100,2013-04-04 04:54:00